Flag for Germany Weather past 2 weeks in Alfeld (Leine), Lower Saxony, Germany

Now
45 °F

Drizzle. Mostly cloudy.


Feels Like: 39 °F
Forecast: 46 / 54 °F
Wind: 12 mph from West

Location: Braunschweig

Current Time: Dec 17, 2014 at 11:20:15 PM

Latest Report: Dec 17, 2014 at 9:50 PM


Visibility: 4 mi

Pressure: 29.65 "Hg

Humidity: 100%

Dew point: 45 °F

Location of Alfeld (Leine)Location

Historic Weather in Alfeld (Leine) — Graph

°F

Alfeld (Leine) temperature yesterday

Maximum temperature yesterday: 43 °F (at 12:50 PM)
Minimum temperature yesterday: 36 °F (at 8:50 PM)
Average temperature yesterday: 40 °F

Past Weeks' High & Low Weather Summary

 TemperatureHumidityPressure
High48 °F (Dec 12, 11:20 AM)100% (Dec 2, 9:50 PM)30.36 "Hg (Dec 2, 9:50 PM)
Low25 °F (Dec 3, 2:50 AM)65% (Dec 10, 6:50 AM)29.36 "Hg (Dec 12, 2:20 PM)
Average38 °F90%29.93 "Hg
* Reported Dec 2 9:50 PM — Dec 17 9:50 PM, Alfeld (Leine), Weather by CustomWeather, © 2014

Note: Actual official high and low records may vary slightly from our data, if they occured in-between our weather recording intervals... More about our weather records

Advertising

Alfeld (Leine) weather history for previous 24 hours

 ConditionsComfort  
Time TempWeatherWind HumidityBarometerVisibility
9:50 PM
Dec 17
45 °FDrizzle. Mostly cloudy.12 mph100%29.65 "Hg4 mi
9:20 PM45 °FDrizzle. Fog.10 mph100%29.65 "Hg3 mi
8:50 PM45 °FPassing clouds.13 mph100%29.62 "Hg5 mi
8:20 PM43 °FDrizzle. Fog.13 mph100%29.62 "Hg3 mi
7:50 PM43 °FMostly cloudy.13 mph100%29.59 "Hg4 mi
7:20 PM41 °FLow clouds.10 mph100%29.59 "Hg5 mi
6:50 PM41 °FPassing clouds.10 mph100%29.59 "Hg6 mi
6:20 PM41 °FDrizzle. Mostly cloudy.10 mph100%29.59 "HgN/A
5:50 PM39 °FRain. Mostly cloudy.10 mph100%29.56 "Hg4 mi
5:20 PM39 °FLight rain. Mostly cloudy.12 mph100%29.56 "Hg3 mi
4:50 PM39 °FLight rain. Fog.9 mph100%29.56 "Hg3 mi
4:20 PM39 °FLight rain. Overcast.10 mph100%29.56 "Hg4 mi
3:50 PM39 °FLight rain. Overcast.13 mph93%29.56 "Hg4 mi
3:20 PM39 °FLight rain. Mostly cloudy.12 mph93%29.56 "HgN/A
2:50 PM39 °FLight rain. Mostly cloudy.13 mph93%29.56 "HgN/A
2:20 PM39 °FLight rain. Mostly cloudy.12 mph93%29.56 "HgN/A
1:50 PM39 °FLight rain. Mostly cloudy.9 mph93%29.59 "HgN/A
1:20 PM39 °FLight rain. Mostly cloudy.7 mph93%29.62 "HgN/A
12:50 PM39 °FLight rain. Mostly cloudy.10 mph93%29.62 "HgN/A
12:20 PM39 °FLight rain. More clouds than sun.8 mph93%29.65 "HgN/A
11:50 AM39 °FLight rain. More clouds than sun.12 mph87%29.68 "HgN/A
11:20 AM41 °FLight rain. Overcast.12 mph76%29.71 "HgN/A
10:50 AM41 °FSunny.10 mph76%29.71 "Hg10 mi
10:20 AM39 °FSunny.8 mph81%29.71 "Hg10 mi
9:50 AM39 °FSunny.7 mph81%29.74 "Hg10 mi
9:20 AM39 °FSunny.7 mph75%29.74 "Hg10 mi
8:50 AM39 °FSunny.8 mph81%29.74 "Hg10 mi
8:20 AM39 °FClear.9 mph81%29.77 "Hg10 mi
7:50 AM39 °FClear.10 mph81%29.77 "Hg10 mi
7:20 AM37 °FClear.12 mph87%29.80 "Hg10 mi
6:50 AM37 °FClear.10 mph93%29.80 "Hg10 mi
12:20 AM36 °FClear.8 mph100%29.86 "Hg10 mi
11:50 PM
Dec 16
36 °FPassing clouds.9 mph100%29.86 "HgN/A
11:20 PM36 °FPassing clouds.8 mph100%29.86 "HgN/A
Weather by CustomWeather, © 2014

See weather overviewHow to use our weather pages